TimePST,TemperatureF,Dew PointF,Humidity,Sea Level PressureIn,VisibilityMPH,Wind Direction,Wind SpeedMPH,Gust SpeedMPH,PrecipitationIn,Events,Conditions,WindDirDegrees,DateUTC
12:56 AM,36.0,18.0,48,30.09,10.0,ESE,4.6,-,N/A,,Clear,120,2013-03-05 08:56:00
2:56 AM,36.0,21.9,57,30.06,10.0,East,11.5,-,N/A,,Clear,100,2013-03-05 10:56:00
3:56 AM,34.0,21.9,61,30.05,10.0,East,10.4,-,N/A,,Clear,100,2013-03-05 11:56:00
4:56 AM,30.9,23.0,72,30.05,10.0,SSE,8.1,-,N/A,,Clear,150,2013-03-05 12:56:00
5:56 AM,32.0,23.0,69,30.04,10.0,ESE,8.1,-,N/A,,Clear,110,2013-03-05 13:56:00
6:56 AM,34.0,23.0,64,30.03,10.0,East,8.1,-,N/A,,Clear,100,2013-03-05 14:56:00
7:56 AM,37.0,23.0,57,30.01,10.0,East,13.8,-,N/A,,Clear,80,2013-03-05 15:56:00
8:56 AM,39.9,23.0,51,30.00,10.0,East,10.4,-,N/A,,Partly Cloudy,80,2013-03-05 16:56:00
9:56 AM,44.1,24.1,45,29.98,10.0,East,9.2,-,N/A,,Clear,80,2013-03-05 17:56:00
10:56 AM,48.0,24.1,39,29.94,10.0,ENE,10.4,-,N/A,,Clear,70,2013-03-05 18:56:00
11:56 AM,48.0,25.0,41,29.93,10.0,ENE,10.4,-,N/A,,Mostly Cloudy,60,2013-03-05 19:56:00
12:56 PM,48.9,27.0,43,29.90,10.0,ENE,6.9,-,N/A,,Overcast,60,2013-03-05 20:56:00
1:56 PM,52.0,28.0,40,29.88,10.0,ENE,9.2,-,N/A,,Mostly Cloudy,70,2013-03-05 21:56:00
2:56 PM,53.1,28.0,38,29.86,10.0,ENE,9.2,-,N/A,,Partly Cloudy,60,2013-03-05 22:56:00
3:56 PM,51.1,28.0,41,29.85,10.0,East,6.9,-,N/A,,Overcast,80,2013-03-05 23:56:00
4:56 PM,48.9,28.0,44,29.85,10.0,ESE,4.6,-,N/A,,Partly Cloudy,110,2013-03-06 00:56:00
5:56 PM,46.0,27.0,47,29.85,10.0,East,4.6,-,N/A,,Partly Cloudy,100,2013-03-06 01:56:00
6:56 PM,43.0,27.0,53,29.84,10.0,East,3.5,-,N/A,,Partly Cloudy,100,2013-03-06 02:56:00
7:56 PM,44.1,28.0,53,29.83,10.0,SE,4.6,-,N/A,,Overcast,130,2013-03-06 03:56:00
8:56 PM,45.0,28.9,53,29.82,10.0,East,4.6,-,N/A,,Overcast,100,2013-03-06 04:56:00
9:56 PM,44.1,28.9,55,29.82,10.0,Calm,Calm,-,N/A,,Overcast,0,2013-03-06 05:56:00
10:56 PM,43.0,28.9,58,29.80,10.0,Calm,Calm,-,N/A,,Overcast,0,2013-03-06 06:56:00
11:56 PM,42.1,30.0,62,29.79,10.0,South,3.5,-,N/A,,Overcast,180,2013-03-06 07:56:00